Gonzales, LA

11:42 PM CDT on October 19, 2017 (GMT -0500)
Gonzales

Weather History for KL38 - April, 2013

Change the Weather History Date:

Monday, April 8, 2013

  Actual Average (KBTR) Record (KBTR)
Temperature  
Mean Temperature 69 °F -  
Max Temperature 81 °F 77 °F 87 °F (1911)
Min Temperature 57 °F 55 °F 34 °F (1939)
Cooling Degree Days 4    
Growing Degree Days 19 (Base 50)    
Moisture  
Dew Point 62 °F    
Average Humidity 79    
Maximum Humidity 100    
Minimum Humidity 53    
Precipitation  
Precipitation 0.00 in - - ()
Sea Level Pressure  
Sea Level Pressure 29.96 in    
Wind  
Wind Speed 5 mph (SE)    
Max Wind Speed 17 mph    
Max Gust Speed 23 mph    
Visibility 9 miles    
Events Fog    
Averages and records for this station are not official NWS values.
T = Trace of Precipitation, MM = Missing Value Source: NWS Daily Summary

Daily Weather History Graph

Daily Weather History Graph

Search for Another Location

Airport or City:

Trip Planner

Search our weather history database for the weather conditions in past years. The results will help you decide how hot, cold, wet, or windy it might be!

Date:

Astronomy

Apr. 08, 2013 Rise Set
Actual Time 6:44 AM CDT 7:27 PM CDT
Civil Twilight 6:20 AM CDT 7:51 PM CDT
Nautical Twilight 5:51 AM CDT 8:20 PM CDT
Astronomical Twilight 5:22 AM CDT 8:49 PM CDT
Moon 5:28 AM CDT (4/8) 6:05 PM CDT (4/8)
Length of Visible Light 13h 31m
Length of Day
12h 42m
Waning Crescent, 3% of the Moon is Illuminated
Apr 8
Waning Crescent
Apr 10
New
Apr 18
First Quarter
Apr 25
Full
May 2
Last Quarter

Hourly Weather History & Observations

Time (CDT) Temp. Heat Index Dew Point Humidity Pressure Visibility Wind Dir Wind Speed Gust Speed Precip Events Conditions
12:15 AM 64.8 °F - 61.0 °F 88% 29.98 in 10.0 mi ESE 3.5 mph - N/A   Clear
12:35 AM 64.4 °F - 61.0 °F 89% 29.98 in 10.0 mi ESE 3.5 mph - N/A   Clear
12:55 AM 63.7 °F - 61.0 °F 91% 29.97 in 10.0 mi Calm Calm - N/A   Clear
1:15 AM 63.5 °F - 61.0 °F 91% 29.97 in 10.0 mi ESE 4.6 mph - N/A   Clear
1:35 AM 63.1 °F - 61.2 °F 93% 29.96 in 10.0 mi ESE 3.5 mph - N/A   Clear
1:55 AM 63.0 °F - 61.0 °F 93% 29.96 in 10.0 mi Calm Calm - N/A   Clear
2:15 AM 62.6 °F - 61.0 °F 94% 29.96 in 10.0 mi Calm Calm - N/A   Clear
2:35 AM 61.9 °F - 60.4 °F 95% 29.96 in 10.0 mi Calm Calm - N/A   Clear
2:55 AM 59.7 °F - 59.4 °F 99% 29.96 in 7.0 mi Calm Calm - N/A   Clear
3:15 AM 59.0 °F - 58.6 °F 99% 29.95 in 1.5 mi Calm Calm - N/A   Mist
3:35 AM 58.8 °F - 58.6 °F 99% 29.95 in 3.0 mi Calm Calm - N/A   Clear
3:55 AM 58.8 °F - 58.5 °F 99% 29.95 in 0.8 mi Calm Calm - N/A   Mostly Cloudy
4:15 AM 58.1 °F - 58.1 °F 100% 29.95 in 0.2 mi Calm Calm - N/A Fog Fog
4:35 AM 57.2 °F - 57.2 °F 100% 29.94 in 10.0 mi Calm Calm - N/A   Scattered Clouds
4:55 AM 57.2 °F - 57.2 °F 100% 29.94 in 10.0 mi Calm Calm - N/A   Clear
5:15 AM 58.6 °F - 58.6 °F 100% 29.94 in 4.0 mi Calm Calm - N/A   Clear
5:35 AM 58.5 °F - 58.5 °F 100% 29.94 in 0.8 mi Calm Calm - N/A   Mist
5:55 AM 58.3 °F - 58.3 °F 100% 29.95 in 7.0 mi Calm Calm - N/A   Clear
6:15 AM 58.1 °F - 58.1 °F 100% 29.95 in 5.0 mi Calm Calm - N/A   Clear
6:35 AM 58.1 °F - 58.1 °F 100% 29.96 in 0.8 mi Calm Calm - N/A   Mist
6:55 AM 57.6 °F - 57.6 °F 100% 29.96 in 0.2 mi Calm Calm - N/A Fog Fog
7:15 AM 57.7 °F - 57.7 °F 100% 29.97 in 0.2 mi Calm Calm - N/A Fog Fog
7:35 AM 59.5 °F - 59.5 °F 100% 29.98 in 4.0 mi Calm Calm - N/A   Clear
7:55 AM 62.1 °F - 61.9 °F 99% 29.98 in 7.0 mi Calm Calm - N/A   Clear
8:15 AM 63.7 °F - 63.3 °F 99% 29.98 in 7.0 mi Calm Calm - N/A   Clear
8:35 AM 65.7 °F - 63.5 °F 93% 29.98 in 10.0 mi ESE 4.6 mph - N/A   Clear
8:55 AM 67.1 °F - 63.5 °F 88% 29.98 in 10.0 mi ESE 3.5 mph - N/A   Scattered Clouds
9:15 AM 69.4 °F - 62.6 °F 79% 29.98 in 10.0 mi SE 6.9 mph - N/A   Clear
9:35 AM 71.2 °F - 63.1 °F 75% 29.98 in 10.0 mi SE 10.4 mph - N/A   Scattered Clouds
9:55 AM 73.4 °F - 64.6 °F 74% 29.98 in 10.0 mi SE 6.9 mph - N/A   Overcast
10:15 AM 74.3 °F - 64.4 °F 71% 29.99 in 10.0 mi SSE 11.5 mph - N/A   Scattered Clouds
10:35 AM 73.2 °F - 64.0 °F 73% 30.00 in 10.0 mi SSE 10.4 mph - N/A   Mostly Cloudy
10:55 AM 74.8 °F - 65.5 °F 73% 30.00 in 10.0 mi SSE 10.4 mph - N/A   Overcast
11:15 AM 75.2 °F - 64.0 °F 68% 30.00 in 10.0 mi SSE 10.4 mph - N/A   Overcast
11:35 AM 75.2 °F - 64.4 °F 69% 30.00 in 10.0 mi SE 10.4 mph - N/A   Mostly Cloudy
11:55 AM 76.1 °F - 63.9 °F 66% 30.00 in 10.0 mi SSE 13.8 mph 18.4 mph N/A   Mostly Cloudy
12:15 PM 76.5 °F - 62.8 °F 62% 30.00 in 10.0 mi SSE 9.2 mph - N/A   Mostly Cloudy
12:35 PM 79.2 °F - 63.5 °F 59% 29.99 in 10.0 mi SSE 11.5 mph 18.4 mph N/A   Mostly Cloudy
12:55 PM 78.3 °F - 63.0 °F 59% 29.99 in 10.0 mi SSE 10.4 mph 17.3 mph N/A   Mostly Cloudy
1:15 PM 78.6 °F - 63.0 °F 59% 29.98 in 10.0 mi SSE 9.2 mph 18.4 mph N/A   Mostly Cloudy
1:35 PM 78.6 °F - 63.1 °F 59% 29.98 in 10.0 mi SSE 10.4 mph 16.1 mph N/A   Mostly Cloudy
1:55 PM 79.0 °F - 63.0 °F 58% 29.97 in 10.0 mi SE 11.5 mph 16.1 mph N/A   Mostly Cloudy
2:15 PM 79.3 °F - 62.8 °F 57% 29.96 in 10.0 mi SSE 11.5 mph 18.4 mph N/A   Mostly Cloudy
2:35 PM 79.5 °F - 63.0 °F 57% 29.96 in 10.0 mi SSE 12.7 mph 16.1 mph N/A   Mostly Cloudy
2:55 PM 80.8 °F 82.1 °F 63.3 °F 55% 29.95 in 10.0 mi SSE 11.5 mph - N/A   Mostly Cloudy
3:15 PM 79.3 °F - 62.8 °F 57% 29.94 in 10.0 mi SSE 13.8 mph 17.3 mph N/A   Mostly Cloudy
3:35 PM 79.9 °F - 62.4 °F 55% 29.94 in 10.0 mi SSE 13.8 mph 18.4 mph N/A   Mostly Cloudy
3:55 PM 81.1 °F 82.3 °F 62.4 °F 53% 29.93 in 10.0 mi SSE 13.8 mph 20.7 mph N/A   Mostly Cloudy
4:15 PM 80.6 °F 81.8 °F 62.6 °F 54% 29.93 in 10.0 mi SE 11.5 mph 19.6 mph N/A   Mostly Cloudy
4:35 PM 81.3 °F 82.5 °F 62.8 °F 53% 29.93 in 10.0 mi SSE 10.4 mph 17.3 mph N/A   Mostly Cloudy
4:55 PM 79.2 °F - 63.3 °F 58% 29.94 in 10.0 mi SSE 8.1 mph - N/A   Mostly Cloudy
5:15 PM 78.8 °F - 62.2 °F 57% 29.94 in 10.0 mi SSE 12.7 mph 20.7 mph N/A   Mostly Cloudy
5:35 PM 77.9 °F - 62.4 °F 59% 29.94 in 10.0 mi SSE 13.8 mph 18.4 mph N/A   Scattered Clouds
5:55 PM 77.5 °F - 62.2 °F 59% 29.94 in 10.0 mi SSE 12.7 mph 19.6 mph N/A   Clear
6:15 PM 76.3 °F - 60.8 °F 59% 29.94 in 10.0 mi SSE 10.4 mph 18.4 mph N/A   Clear
6:35 PM 75.7 °F - 61.5 °F 61% 29.94 in 10.0 mi SSE 10.4 mph 19.6 mph N/A   Clear
6:55 PM 75.6 °F - 61.9 °F 62% 29.92 in 10.0 mi ESE 17.3 mph 23.0 mph N/A   Clear
7:15 PM 74.5 °F - 62.1 °F 65% 29.90 in 10.0 mi ESE 9.2 mph 20.7 mph N/A   Clear
7:35 PM 74.3 °F - 62.8 °F 67% 29.90 in 10.0 mi SE 6.9 mph 19.6 mph N/A   Clear
7:55 PM 73.9 °F - 63.7 °F 70% 29.92 in 10.0 mi ESE 8.1 mph - N/A   Clear
8:15 PM 73.4 °F - 64.9 °F 75% 29.91 in 10.0 mi ESE 6.9 mph - N/A   Mostly Cloudy
8:35 PM 73.0 °F - 66.6 °F 80% 29.93 in 10.0 mi SE 6.9 mph - N/A   Mostly Cloudy
8:55 PM 72.5 °F - 66.6 °F 82% 29.94 in 10.0 mi SE 8.1 mph - N/A   Mostly Cloudy
9:15 PM 72.5 °F - 66.9 °F 83% 29.94 in 10.0 mi SE 10.4 mph - N/A   Overcast
9:35 PM 72.0 °F - 66.6 °F 83% 29.94 in 10.0 mi SE 8.1 mph - N/A   Scattered Clouds
9:55 PM 72.0 °F - 66.7 °F 84% 29.95 in 10.0 mi ESE 6.9 mph - N/A   Mostly Cloudy
10:15 PM 72.0 °F - 67.1 °F 85% 29.95 in 10.0 mi ESE 4.6 mph - N/A   Mostly Cloudy
10:35 PM 72.0 °F - 67.1 °F 85% 29.96 in 10.0 mi ESE 5.8 mph - N/A   Overcast
10:55 PM 72.1 °F - 67.5 °F 85% 29.95 in 10.0 mi ESE 4.6 mph - N/A   Overcast
11:15 PM 72.1 °F - 67.8 °F 86% 29.95 in 10.0 mi ESE 5.8 mph - N/A   Overcast
11:35 PM 72.1 °F - 67.8 °F 86% 29.95 in 10.0 mi ESE 8.1 mph - N/A   Overcast
11:55 PM 72.5 °F - 67.8 °F 85% 29.95 in 10.0 mi ESE 9.2 mph - N/A   Overcast